Trinity Center, CA

10:35 AM PDT on March 29, 2017 (GMT -0700)
Trinity Center

Weather History for KO86 - January, 2013

Change the Weather History Date:

Tuesday, January 1, 2013

  Actual Average (KMHS) Record (KMHS)
Temperature  
Mean Temperature 31 °F -  
Max Temperature 39 °F 42 °F 71 °F (1918)
Min Temperature 23 °F 27 °F 2 °F (1937)
Degree Days  
Heating Degree Days 34    
Moisture  
Dew Point 26 °F    
Average Humidity 90    
Maximum Humidity 100    
Minimum Humidity 65    
Precipitation  
Precipitation 0.00 in - - ()
Sea Level Pressure  
Sea Level Pressure 30.35 in    
Wind  
Wind Speed 3 mph (West)    
Max Wind Speed 6 mph    
Max Gust Speed -    
Visibility 10 miles    
Events      
Averages and records for this station are not official NWS values.
T = Trace of Precipitation, MM = Missing Value Source: NWS Daily Summary

Daily Weather History Graph

Daily Weather History Graph

Search for Another Location

Airport or City:

Trip Planner

Search our weather history database for the weather conditions in past years. The results will help you decide how hot, cold, wet, or windy it might be!

Date:

Astronomy

Jan. 01, 2013 Rise Set
Actual Time 7:35 AM PST 4:53 PM PST
Civil Twilight 7:04 AM PST 5:24 PM PST
Nautical Twilight 6:30 AM PST 5:59 PM PST
Astronomical Twilight 5:56 AM PST 6:32 PM PST
Moon 9:32 PM PST (1/1) 9:48 AM PST (1/1)
Length of Visible Light 10h 19m
Length of Day
9h 17m
Waning Gibbous, 82% of the Moon is Illuminated
Jan 1
Waning Gibbous
Jan 4
Last Quarter
Jan 11
New
Jan 18
First Quarter
Jan 26
Full

Hourly Weather History & Observations

Time (PST) Temp. Windchill Dew Point Humidity Pressure Visibility Wind Dir Wind Speed Gust Speed Precip Events Conditions
12:10 AM 24.8 °F 20.5 °F 23.0 °F 93% 30.31 in 10.0 mi West 3.5 mph - N/A   Overcast
12:30 AM 24.8 °F 19.1 °F 23.0 °F 93% 30.30 in 10.0 mi West 4.6 mph - N/A   Overcast
12:50 AM 24.8 °F 19.1 °F 23.0 °F 93% 30.30 in 10.0 mi West 4.6 mph - N/A   Overcast
1:10 AM 24.8 °F 17.9 °F 23.0 °F 93% 30.31 in 10.0 mi West 5.8 mph - N/A   Overcast
1:30 AM 24.8 °F 19.1 °F 23.0 °F 93% 30.31 in 10.0 mi West 4.6 mph - N/A   Overcast
1:50 AM 24.8 °F 20.5 °F 23.0 °F 93% 30.32 in 10.0 mi West 3.5 mph - N/A   Overcast
2:10 AM 24.8 °F 19.1 °F 24.8 °F 100% 30.32 in 3.0 mi West 4.6 mph - N/A   Overcast
2:30 AM 24.8 °F 19.1 °F 23.0 °F 93% 30.33 in 10.0 mi West 4.6 mph - N/A   Overcast
2:50 AM 24.8 °F 20.5 °F 23.0 °F 93% 30.33 in 10.0 mi West 3.5 mph - N/A   Overcast
3:10 AM 24.8 °F 20.5 °F 23.0 °F 93% 30.33 in 8.0 mi West 3.5 mph - N/A   Overcast
3:30 AM 24.8 °F 19.1 °F 23.0 °F 93% 30.33 in 10.0 mi West 4.6 mph - N/A   Overcast
3:50 AM 24.8 °F 19.1 °F 23.0 °F 93% 30.33 in 10.0 mi West 4.6 mph - N/A   Overcast
4:10 AM 24.8 °F 17.9 °F 23.0 °F 93% 30.35 in 7.0 mi West 5.8 mph - N/A   Overcast
4:30 AM 24.8 °F 20.5 °F 23.0 °F 93% 30.35 in 10.0 mi West 3.5 mph - N/A   Overcast
4:50 AM 24.8 °F 17.9 °F 23.0 °F 93% 30.34 in 4.0 mi West 5.8 mph - N/A   Overcast
5:10 AM 24.8 °F 20.5 °F 23.0 °F 93% 30.35 in 10.0 mi West 3.5 mph - N/A   Overcast
5:30 AM 24.8 °F 17.9 °F 23.0 °F 93% 30.35 in 10.0 mi West 5.8 mph - N/A   Overcast
5:50 AM 24.8 °F 20.5 °F 23.0 °F 93% 30.34 in 10.0 mi WNW 3.5 mph - N/A   Overcast
6:10 AM 23.0 °F 17.0 °F 23.0 °F 100% 30.34 in 10.0 mi WNW 4.6 mph - N/A   Overcast
6:30 AM 23.0 °F 17.0 °F 21.2 °F 93% 30.35 in 10.0 mi West 4.6 mph - N/A   Overcast
6:50 AM 24.8 °F 19.1 °F 23.0 °F 93% 30.35 in 7.0 mi WNW 4.6 mph - N/A   Overcast
7:10 AM 23.0 °F 15.8 °F 21.2 °F 93% 30.36 in 10.0 mi West 5.8 mph - N/A   Overcast
7:30 AM 23.0 °F 15.8 °F 21.2 °F 93% 30.35 in 10.0 mi West 5.8 mph - N/A   Overcast
7:50 AM 23.0 °F 18.4 °F 19.4 °F 86% 30.36 in 10.0 mi West 3.5 mph - N/A   Overcast
8:30 AM 23.0 °F 15.8 °F 21.2 °F 93% 30.38 in 10.0 mi West 5.8 mph - N/A   Overcast
8:50 AM 23.0 °F 18.4 °F 21.2 °F 93% 30.38 in 3.0 mi WSW 3.5 mph - N/A   Mostly Cloudy
9:10 AM 23.0 °F - 23.0 °F 100% 30.39 in 10.0 mi Calm Calm - N/A   Scattered Clouds
9:30 AM 24.8 °F - 24.8 °F 100% 30.41 in 10.0 mi Calm Calm - N/A   Overcast
9:50 AM 26.6 °F - 24.8 °F 93% 30.42 in 10.0 mi Calm Calm - N/A   Mostly Cloudy
10:10 AM 28.4 °F - 26.6 °F 93% 30.42 in 10.0 mi Calm Calm - N/A   Partly Cloudy
10:30 AM 30.2 °F - 26.6 °F 86% 30.42 in 10.0 mi Calm Calm - N/A   Clear
10:50 AM 32.0 °F - 26.6 °F 80% 30.41 in 10.0 mi Calm Calm - N/A   Clear
11:10 AM 32.0 °F 27.5 °F 26.6 °F 80% 30.40 in 10.0 mi SSE 4.6 mph - N/A   Clear
11:30 AM 32.0 °F - 28.4 °F 87% 30.39 in 10.0 mi Calm Calm - N/A   Clear
11:50 AM 32.0 °F - 28.4 °F 87% 30.39 in 10.0 mi Calm Calm - N/A   Clear
12:10 PM 33.8 °F - 28.4 °F 81% 30.38 in 10.0 mi Calm Calm - N/A   Clear
12:30 PM 35.6 °F - 28.4 °F 75% 30.37 in 10.0 mi Calm Calm - N/A   Clear
12:50 PM 37.4 °F - 26.6 °F 65% 30.36 in 10.0 mi Calm Calm - N/A   Clear
1:10 PM 37.4 °F - 28.4 °F 70% 30.35 in 10.0 mi Calm Calm - N/A   Clear
1:30 PM 37.4 °F - 28.4 °F 70% 30.34 in 10.0 mi Calm Calm - N/A   Clear
1:50 PM 37.4 °F - 28.4 °F 70% 30.34 in 10.0 mi Calm Calm - N/A   Clear
2:10 PM 39.2 °F - 28.4 °F 65% 30.33 in 10.0 mi Calm Calm - N/A   Clear
2:30 PM 39.2 °F 37.0 °F 30.2 °F 70% 30.33 in 10.0 mi SSE 3.5 mph - N/A   Clear
2:50 PM 39.2 °F - 32.0 °F 75% 30.33 in 10.0 mi Calm Calm - N/A   Clear
3:10 PM 39.2 °F - 32.0 °F 75% 30.33 in 10.0 mi Calm Calm - N/A   Clear
3:30 PM 37.4 °F - 32.0 °F 81% 30.33 in 10.0 mi Calm Calm - N/A   Clear
3:50 PM 35.6 °F - 32.0 °F 87% 30.33 in 10.0 mi Calm Calm - N/A   Clear
4:10 PM 33.8 °F - 32.0 °F 93% 30.34 in 10.0 mi Calm Calm - N/A   Clear
4:30 PM 32.0 °F - 32.0 °F 100% 30.34 in 10.0 mi Calm Calm - N/A   Clear
4:50 PM 32.0 °F - 28.4 °F 87% 30.34 in 7.0 mi Calm Calm - N/A   Clear
5:10 PM 32.0 °F 28.7 °F 30.2 °F 93% 30.34 in 9.0 mi West 3.5 mph - N/A   Clear
5:30 PM 30.2 °F 26.7 °F 28.4 °F 93% 30.34 in 10.0 mi WSW 3.5 mph - N/A   Clear
5:50 PM 30.2 °F 26.7 °F 28.4 °F 93% 30.34 in 10.0 mi WSW 3.5 mph - N/A   Clear
6:10 PM 28.4 °F - 28.4 °F 100% 30.34 in 9.0 mi Calm Calm - N/A   Clear
6:30 PM 28.4 °F - 28.4 °F 100% 30.34 in 10.0 mi Calm Calm - N/A   Clear
6:50 PM 28.4 °F - 26.6 °F 93% 30.34 in 10.0 mi Calm Calm - N/A   Clear
7:10 PM 26.6 °F - 26.6 °F 100% 30.34 in 10.0 mi Calm Calm - N/A   Clear
7:30 PM 28.4 °F 23.3 °F 26.6 °F 93% 30.35 in 10.0 mi West 4.6 mph - N/A   Clear
7:50 PM 28.4 °F 23.3 °F 26.6 °F 93% 30.35 in 10.0 mi West 4.6 mph - N/A   Clear
8:10 PM 26.6 °F 22.6 °F 26.6 °F 100% 30.35 in 10.0 mi West 3.5 mph - N/A   Clear
8:30 PM 26.6 °F 21.2 °F 26.6 °F 100% 30.35 in 9.0 mi West 4.6 mph - N/A   Clear
8:50 PM 26.6 °F 22.6 °F 26.6 °F 100% 30.35 in 10.0 mi West 3.5 mph - N/A   Clear
9:10 PM 26.6 °F 21.2 °F 24.8 °F 93% 30.35 in 10.0 mi West 4.6 mph - N/A   Clear
9:30 PM 26.6 °F 20.0 °F 24.8 °F 93% 30.36 in 10.0 mi West 5.8 mph - N/A   Clear
9:50 PM 26.6 °F 21.2 °F 26.6 °F 100% 30.36 in 10.0 mi West 4.6 mph - N/A   Clear
10:10 PM 26.6 °F 22.6 °F 24.8 °F 93% 30.36 in 10.0 mi West 3.5 mph - N/A   Clear
10:30 PM 26.6 °F 21.2 °F 24.8 °F 93% 30.37 in 10.0 mi West 4.6 mph - N/A   Clear
10:50 PM 24.8 °F 19.1 °F 23.0 °F 93% 30.36 in 10.0 mi West 4.6 mph - N/A   Clear
11:10 PM 24.8 °F 19.1 °F 24.8 °F 100% 30.37 in 10.0 mi WNW 4.6 mph - N/A   Scattered Clouds
11:30 PM 24.8 °F 19.1 °F 23.0 °F 93% 30.37 in 9.0 mi West 4.6 mph - N/A   Overcast
11:50 PM 24.8 °F 20.5 °F 23.0 °F 93% 30.37 in 10.0 mi West 3.5 mph - N/A   Overcast